| time (UTC) | temp F | wind direction | speed knots | gust knots | rain 1hr in | rain 24hr in | rain mn in | humidity % | barometer mb |
| 20260507201518 | 50 | 200 | 0.0 | 1.7 | 0.00 | 0.00 | 0.00 | 87 | 1016.9 |
| 20260507201007 | 50 | 192 | 0.0 | 1.7 | 0.00 | 0.00 | 0.00 | 87 | 1016.8 |
| 20260507200509 | 50 | 192 | 0.0 | 1.7 | 0.00 | 0.00 | 0.00 | 87 | 1016.8 |
| 20260507200021 | 50 | 196 | 0.0 | 1.7 | 0.00 | 0.00 | 0.00 | 86 | 1016.7 |
| 20260507195506 | 51 | 209 | 0.9 | 1.7 | 0.00 | 0.00 | 0.00 | 85 | 1016.7 |
| 20260507195010 | 51 | 248 | 0.0 | 1.7 | 0.00 | 0.00 | 0.00 | 85 | 1016.6 |
| 20260507194526 | 51 | 218 | 0.0 | 1.7 | 0.00 | 0.00 | 0.00 | 85 | 1016.6 |
| 20260507194010 | 51 | 229 | 0.0 | 1.7 | 0.00 | 0.00 | 0.00 | 85 | 1016.5 |
| 20260507193510 | 51 | 221 | 0.0 | 1.7 | 0.00 | 0.00 | 0.00 | 85 | 1016.4 |
| 20260507193027 | 51 | 221 | 0.0 | 1.7 | 0.00 | 0.00 | 0.00 | 85 | 1016.4 |
| 20260507192507 | 51 | 221 | 0.0 | 1.7 | 0.00 | 0.00 | 0.00 | 85 | 1016.4 |
| 20260507192010 | 51 | 227 | 0.9 | 1.7 | 0.00 | 0.00 | 0.00 | 84 | 1016.4 |
| 20260507191528 | 51 | 249 | 0.0 | 1.7 | 0.00 | 0.00 | 0.00 | 84 | 1016.4 |
| 20260507191008 | 52 | 249 | 0.0 | 1.7 | 0.00 | 0.00 | 0.00 | 83 | 1016.3 |
| 20260507190509 | 52 | 258 | 0.0 | 1.7 | 0.00 | 0.00 | 0.00 | 82 | 1016.4 |
| 20260507190022 | 52 | 277 | 0.0 | 1.7 | 0.00 | 0.00 | 0.00 | 81 | 1016.4 |
| 20260507185507 | 52 | 272 | 0.9 | 1.7 | 0.00 | 0.00 | 0.00 | 82 | 1016.4 |
| 20260507185011 | 52 | 188 | 0.0 | 1.7 | 0.00 | 0.00 | 0.00 | 82 | 1016.4 |
| 20260507184524 | 52 | 183 | 0.9 | 1.7 | 0.00 | 0.00 | 0.00 | 81 | 1016.4 |
| 20260507184010 | 53 | 216 | 0.0 | 1.7 | 0.00 | 0.00 | 0.00 | 80 | 1016.4 |
| 20260507183510 | 53 | 225 | 0.0 | 1.7 | 0.00 | 0.00 | 0.00 | 81 | 1016.3 |
| 20260507183027 | 53 | 246 | 0.0 | 1.7 | 0.00 | 0.00 | 0.00 | 81 | 1016.3 |
| 20260507182509 | 53 | 212 | 0.0 | 1.7 | 0.00 | 0.00 | 0.00 | 81 | 1016.3 |
| 20260507182011 | 53 | 207 | 0.0 | 1.7 | 0.00 | 0.00 | 0.00 | 82 | 1016.2 |
| 20260507181527 | 53 | 220 | 0.0 | 1.7 | 0.00 | 0.00 | 0.00 | 82 | 1016.2 |
| 20260507181014 | 53 | 207 | 0.0 | 1.7 | 0.00 | 0.00 | 0.00 | 81 | 1016.2 |
| 20260507180510 | 53 | 210 | 0.0 | 1.7 | 0.00 | 0.00 | 0.00 | 80 | 1016.2 |
| 20260507180026 | 53 | 213 | 0.0 | 1.7 | 0.00 | 0.00 | 0.00 | 79 | 1016.2 |
| 20260507175516 | 53 | 239 | 0.9 | 1.7 | 0.00 | 0.00 | 0.00 | 80 | 1016.2 |
| 20260507175007 | 53 | 199 | 0.0 | 1.7 | 0.00 | 0.00 | 0.00 | 79 | 1016.1 |
| 20260507174540 | 54 | 211 | 0.0 | 1.7 | 0.00 | 0.00 | 0.00 | 77 | 1016.1 |
| 20260507174017 | 54 | 240 | 0.0 | 1.7 | 0.00 | 0.00 | 0.00 | 77 | 1016.0 |
| 20260507173514 | 54 | 186 | 0.0 | 1.7 | 0.00 | 0.00 | 0.00 | 77 | 1016.0 |
| 20260507173028 | 54 | 186 | 0.0 | 1.7 | 0.00 | 0.00 | 0.00 | 76 | 1016.0 |
| 20260507172511 | 54 | 238 | 0.0 | 1.7 | 0.00 | 0.00 | 0.00 | 77 | 1016.0 |
| 20260507172015 | 54 | 205 | 0.0 | 1.7 | 0.00 | 0.00 | 0.00 | 77 | 1015.9 |
| 20260507171539 | 55 | 182 | 0.0 | 1.7 | 0.00 | 0.00 | 0.00 | 77 | 1016.0 |
| 20260507171010 | 55 | 213 | 0.0 | 1.7 | 0.00 | 0.00 | 0.00 | 76 | 1015.9 |
| 20260507170509 | 55 | 217 | 0.0 | 2.6 | 0.00 | 0.00 | 0.00 | 76 | 1015.9 |
| 20260507170028 | 55 | 198 | 0.9 | 2.6 | 0.00 | 0.00 | 0.00 | 75 | 1015.9 |
| 20260507165513 | 56 | 225 | 0.9 | 1.7 | 0.00 | 0.00 | 0.00 | 73 | 1015.9 |
| 20260507165012 | 56 | 32 | 0.0 | 1.7 | 0.00 | 0.00 | 0.00 | 66 | 1015.8 |
| 20260507164519 | 56 | 26 | 0.0 | 1.7 | 0.00 | 0.00 | 0.00 | 64 | 1015.8 |
| 20260507164009 | 56 | 16 | 0.9 | 1.7 | 0.00 | 0.00 | 0.00 | 63 | 1015.8 |
| 20260507163508 | 56 | 85 | 0.0 | 1.7 | 0.00 | 0.00 | 0.00 | 62 | 1015.9 |
| 20260507163023 | 56 | 86 | 0.0 | 0.9 | 0.00 | 0.00 | 0.00 | 62 | 1015.9 |
| 20260507162511 | 56 | 84 | 0.0 | 1.7 | 0.00 | 0.00 | 0.00 | 61 | 1016.0 |
| 20260507162011 | 56 | 63 | 0.0 | 1.7 | 0.00 | 0.00 | 0.00 | 60 | 1016.0 |
| 20260507161526 | 56 | 67 | 0.9 | 1.7 | 0.00 | 0.00 | 0.00 | 61 | 1016.0 |
| 20260507161013 | 56 | 77 | 0.0 | 1.7 | 0.00 | 0.00 | 0.00 | 64 | 1016.0 |
| 20260507160508 | 57 | 71 | 0.0 | 1.7 | 0.00 | 0.00 | 0.00 | 61 | 1015.9 |
| 20260507160030 | 57 | 65 | 0.9 | 1.7 | 0.00 | 0.00 | 0.00 | 62 | 1015.9 |
| 20260507155510 | 57 | 88 | 0.0 | 1.7 | 0.00 | 0.00 | 0.00 | 63 | 1015.9 |
| 20260507155014 | 56 | 88 | 0.9 | 1.7 | 0.00 | 0.00 | 0.00 | 61 | 1015.9 |
| 20260507154526 | 57 | 90 | 0.0 | 1.7 | 0.00 | 0.00 | 0.00 | 61 | 1015.9 |
| 20260507154011 | 57 | 91 | 0.9 | 1.7 | 0.00 | 0.00 | 0.00 | 63 | 1015.9 |
| 20260507153511 | 57 | 346 | 0.0 | 1.7 | 0.00 | 0.00 | 0.00 | 62 | 1015.9 |
| 20260507153027 | 57 | 78 | 0.0 | 1.7 | 0.00 | 0.00 | 0.00 | 63 | 1015.9 |
| 20260507152510 | 57 | 63 | 0.0 | 2.6 | 0.00 | 0.00 | 0.00 | 62 | 1015.9 |
| 20260507152009 | 57 | 18 | 0.9 | 2.6 | 0.00 | 0.00 | 0.00 | 62 | 1015.9 |
| 20260507151527 | 57 | 73 | 1.7 | 3.5 | 0.00 | 0.00 | 0.00 | 63 | 1016.0 |
| 20260507151009 | 57 | 85 | 0.9 | 3.5 | 0.00 | 0.00 | 0.00 | 64 | 1016.0 |
| 20260507150512 | 57 | 59 | 1.7 | 3.5 | 0.00 | 0.00 | 0.00 | 63 | 1016.0 |
| 20260507150026 | 57 | 352 | 0.9 | 2.6 | 0.00 | 0.00 | 0.00 | 63 | 1016.0 |
| 20260507145512 | 57 | 305 | 0.0 | 2.6 | 0.00 | 0.00 | 0.00 | 65 | 1016.0 |
| 20260507145016 | 57 | 293 | 0.9 | 2.6 | 0.00 | 0.00 | 0.00 | 64 | 1016.0 |
| 20260507144526 | 57 | 39 | 0.9 | 3.5 | 0.00 | 0.00 | 0.00 | 65 | 1016.0 |
| 20260507144010 | 57 | 55 | 0.9 | 3.5 | 0.00 | 0.00 | 0.00 | 64 | 1015.9 |
| 20260507143509 | 57 | 167 | 1.7 | 3.5 | 0.00 | 0.00 | 0.00 | 66 | 1015.9 |
| 20260507143028 | 57 | 84 | 0.9 | 3.5 | 0.00 | 0.00 | 0.00 | 64 | 1015.9 |
| 20260507142511 | 57 | 87 | 1.7 | 3.5 | 0.00 | 0.00 | 0.00 | 65 | 1015.9 |
| 20260507142011 | 57 | 25 | 0.9 | 2.6 | 0.00 | 0.00 | 0.00 | 64 | 1015.9 |
| 20260507141524 | 57 | 25 | 1.7 | 2.6 | 0.00 | 0.00 | 0.00 | 65 | 1016.0 |
| 20260507141003 | 57 | 338 | 0.0 | 2.6 | 0.00 | 0.00 | 0.00 | 64 | 1015.9 |
| 20260507140503 | 57 | 59 | 0.9 | 2.6 | 0.00 | 0.00 | 0.00 | 65 | 1016.0 |
| 20260507140026 | 57 | 101 | 0.0 | 1.7 | 0.00 | 0.00 | 0.00 | 63 | 1016.1 |
| 20260507135504 | 57 | 194 | 0.0 | 2.6 | 0.00 | 0.00 | 0.00 | 65 | 1016.1 |
| 20260507135011 | 56 | 202 | 0.9 | 3.5 | 0.00 | 0.00 | 0.00 | 65 | 1016.0 |
| 20260507134516 | 57 | 219 | 1.7 | 3.5 | 0.00 | 0.00 | 0.00 | 63 | 1016.1 |
| 20260507134007 | 57 | 300 | 0.0 | 1.7 | 0.00 | 0.00 | 0.00 | 65 | 1016.0 |
| 20260507133507 | 56 | 78 | 0.0 | 1.7 | 0.00 | 0.00 | 0.00 | 66 | 1016.0 |
| 20260507133020 | 56 | 267 | 0.9 | 3.5 | 0.00 | 0.00 | 0.00 | 64 | 1016.0 |
| 20260507132508 | 56 | 80 | 0.9 | 3.5 | 0.00 | 0.00 | 0.00 | 66 | 1016.1 |
| 20260507132003 | 56 | 54 | 1.7 | 3.5 | 0.00 | 0.00 | 0.00 | 65 | 1016.1 |
| 20260507131504 | 56 | 325 | 1.7 | 3.5 | 0.00 | 0.00 | 0.00 | 65 | 1016.0 |
| 20260507131007 | 56 | 336 | 0.9 | 2.6 | 0.00 | 0.00 | 0.00 | 66 | 1016.1 |
| 20260507130503 | 56 | 346 | 0.0 | 1.7 | 0.00 | 0.00 | 0.00 | 67 | 1016.0 |
| 20260507130006 | 55 | 80 | 0.9 | 1.7 | 0.00 | 0.00 | 0.00 | 65 | 1016.0 |
| 20260507125508 | 56 | 18 | 0.9 | 1.7 | 0.00 | 0.00 | 0.00 | 65 | 1016.1 |
| 20260507125004 | 56 | 352 | 0.9 | 1.7 | 0.00 | 0.00 | 0.00 | 65 | 1016.1 |
| 20260507124511 | 56 | 87 | 0.0 | 2.6 | 0.00 | 0.00 | 0.00 | 65 | 1016.1 |
| 20260507124007 | 56 | 128 | 0.0 | 2.6 | 0.00 | 0.00 | 0.00 | 65 | 1016.0 |
| 20260507123507 | 56 | 212 | 0.0 | 1.7 | 0.00 | 0.00 | 0.00 | 66 | 1016.0 |
| 20260507123018 | 56 | 206 | 0.9 | 1.7 | 0.00 | 0.00 | 0.00 | 66 | 1016.0 |
| 20260507122513 | 56 | 142 | 0.9 | 2.6 | 0.00 | 0.00 | 0.00 | 65 | 1016.0 |
| 20260507122011 | 56 | 200 | 0.9 | 2.6 | 0.00 | 0.00 | 0.00 | 65 | 1016.0 |
| 20260507121521 | 56 | 196 | 0.9 | 2.6 | 0.00 | 0.00 | 0.00 | 65 | 1015.9 |
| 20260507121004 | 56 | 260 | 0.9 | 2.6 | 0.00 | 0.00 | 0.00 | 66 | 1016.0 |
| 20260507120504 | 56 | 267 | 1.7 | 2.6 | 0.00 | 0.00 | 0.00 | 65 | 1015.9 |
| 20260507120005 | 56 | 211 | 0.0 | 1.7 | 0.00 | 0.00 | 0.00 | 67 | 1015.9 |
| 20260507115504 | 56 | 49 | 0.0 | 1.7 | 0.00 | 0.00 | 0.00 | 66 | 1016.0 |
| 20260507115007 | 56 | 53 | 0.0 | 2.6 | 0.00 | 0.00 | 0.00 | 65 | 1015.9 |
| 20260507114508 | 56 | 192 | 0.0 | 2.6 | 0.00 | 0.00 | 0.00 | 67 | 1015.9 |
| 20260507114010 | 56 | 192 | 0.9 | 1.7 | 0.00 | 0.00 | 0.00 | 67 | 1015.9 |
| 20260507113508 | 56 | 279 | 0.0 | 3.5 | 0.00 | 0.00 | 0.00 | 69 | 1015.9 |
| 20260507113031 | 55 | 86 | 0.9 | 3.5 | 0.00 | 0.00 | 0.00 | 67 | 1015.9 |
| 20260507112511 | 55 | 15 | 1.7 | 1.7 | 0.00 | 0.00 | 0.00 | 67 | 1015.9 |
| 20260507112008 | 55 | 216 | 0.9 | 2.6 | 0.00 | 0.00 | 0.00 | 67 | 1015.8 |
| 20260507111520 | 55 | 272 | 0.0 | 2.6 | 0.00 | 0.00 | 0.00 | 66 | 1015.8 |
| 20260507111010 | 56 | 189 | 0.9 | 3.5 | 0.00 | 0.00 | 0.00 | 68 | 1015.8 |
| 20260507110511 | 55 | 190 | 0.9 | 3.5 | 0.00 | 0.00 | 0.00 | 67 | 1015.9 |
| 20260507110003 | 55 | 178 | 0.9 | 2.6 | 0.00 | 0.00 | 0.00 | 66 | 1015.9 |
| 20260507105504 | 56 | 277 | 0.9 | 2.6 | 0.00 | 0.00 | 0.00 | 68 | 1015.9 |
| 20260507105003 | 56 | 200 | 0.9 | 2.6 | 0.00 | 0.00 | 0.00 | 67 | 1015.9 |
| 20260507104507 | 56 | 169 | 0.9 | 3.5 | 0.00 | 0.00 | 0.00 | 67 | 1015.9 |
| 20260507104006 | 56 | 184 | 1.7 | 3.5 | 0.00 | 0.00 | 0.00 | 67 | 1015.9 |
| 20260507103506 | 55 | 286 | 0.0 | 2.6 | 0.00 | 0.00 | 0.00 | 70 | 1015.9 |
| 20260507103011 | 54 | 92 | 0.0 | 3.5 | 0.00 | 0.00 | 0.00 | 69 | 1016.0 |
| 20260507102507 | 54 | 128 | 0.9 | 3.5 | 0.00 | 0.00 | 0.00 | 72 | 1016.0 |
| 20260507102009 | 54 | 309 | 0.0 | 2.6 | 0.00 | 0.00 | 0.00 | 72 | 1016.0 |
| 20260507101522 | 54 | 202 | 0.9 | 2.6 | 0.00 | 0.00 | 0.00 | 72 | 1016.0 |
| 20260507101012 | 54 | 90 | 0.9 | 1.7 | 0.00 | 0.00 | 0.00 | 72 | 1015.9 |
| 20260507100507 | 53 | 285 | 0.0 | 1.7 | 0.00 | 0.00 | 0.00 | 73 | 1015.9 |
| 20260507100032 | 53 | 351 | 0.0 | 1.7 | 0.00 | 0.00 | 0.00 | 72 | 1015.9 |
| 20260507095511 | 53 | 269 | 0.0 | 2.6 | 0.00 | 0.00 | 0.00 | 73 | 1015.8 |
| 20260507095004 | 53 | 67 | 0.9 | 2.6 | 0.00 | 0.00 | 0.00 | 73 | 1015.8 |
| 20260507094508 | 53 | 54 | 0.9 | 2.6 | 0.00 | 0.00 | 0.00 | 72 | 1015.8 |
| 20260507094003 | 52 | 54 | 0.9 | 3.5 | 0.00 | 0.00 | 0.00 | 73 | 1015.7 |
| 20260507093504 | 52 | 23 | 0.9 | 5.2 | 0.00 | 0.00 | 0.00 | 73 | 1015.7 |
| 20260507093013 | 53 | 60 | 0.9 | 5.2 | 0.00 | 0.00 | 0.00 | 75 | 1015.8 |
| 20260507092509 | 52 | 346 | 0.9 | 2.6 | 0.00 | 0.00 | 0.00 | 75 | 1015.8 |
| 20260507092008 | 52 | 254 | 1.7 | 3.5 | 0.00 | 0.00 | 0.00 | 75 | 1015.7 |
| 20260507091517 | 52 | 282 | 0.9 | 6.1 | 0.00 | 0.00 | 0.00 | 75 | 1015.7 |
| 20260507091008 | 52 | 78 | 3.5 | 6.1 | 0.00 | 0.00 | 0.00 | 75 | 1015.7 |
| 20260507090510 | 52 | 360 | 1.7 | 3.5 | 0.00 | 0.00 | 0.00 | 75 | 1015.7 |
| 20260507090020 | 52 | 47 | 0.9 | 3.5 | 0.00 | 0.00 | 0.00 | 75 | 1015.6 |
| 20260507085508 | 52 | 61 | 1.7 | 3.5 | 0.00 | 0.00 | 0.00 | 75 | 1015.6 |
| 20260507085009 | 52 | 352 | 1.7 | 3.5 | 0.00 | 0.00 | 0.00 | 75 | 1015.5 |
| 20260507084543 | 51 | 34 | 0.9 | 4.3 | 0.00 | 0.00 | 0.00 | 76 | 1015.5 |
| 20260507084010 | 51 | 340 | 1.7 | 4.3 | 0.00 | 0.00 | 0.00 | 75 | 1015.5 |
| 20260507083506 | 51 | 57 | 1.7 | 4.3 | 0.00 | 0.00 | 0.00 | 75 | 1015.5 |
| 20260507083017 | 51 | 55 | 1.7 | 4.3 | 0.00 | 0.00 | 0.00 | 75 | 1015.5 |
| 20260507082504 | 50 | 74 | 1.7 | 5.2 | 0.00 | 0.00 | 0.00 | 76 | 1015.5 |
| 20260507082006 | 50 | 19 | 1.7 | 6.1 | 0.00 | 0.00 | 0.00 | 77 | 1015.5 |
| 20260507081514 | 50 | 78 | 2.6 | 6.1 | 0.00 | 0.00 | 0.00 | 77 | 1015.5 |
| 20260507081012 | 50 | 64 | 2.6 | 4.3 | 0.00 | 0.00 | 0.00 | 76 | 1015.4 |
| 20260507080507 | 50 | 42 | 2.6 | 4.3 | 0.00 | 0.00 | 0.00 | 77 | 1015.4 |
| 20260507080017 | 50 | 34 | 1.7 | 6.1 | 0.00 | 0.00 | 0.00 | 76 | 1015.4 |
| 20260507075508 | 50 | 329 | 1.7 | 6.1 | 0.00 | 0.00 | 0.00 | 78 | 1015.3 |
| 20260507075015 | 50 | 289 | 1.7 | 5.2 | 0.00 | 0.00 | 0.00 | 78 | 1015.2 |
| 20260507074524 | 49 | 44 | 2.6 | 5.2 | 0.00 | 0.00 | 0.00 | 78 | 1015.2 |
| 20260507074008 | 49 | 21 | 1.7 | 4.3 | 0.00 | 0.00 | 0.00 | 78 | 1015.1 |
| 20260507073508 | 50 | 338 | 1.7 | 3.5 | 0.00 | 0.00 | 0.00 | 79 | 1015.1 |
| 20260507073027 | 49 | 64 | 2.6 | 4.3 | 0.00 | 0.00 | 0.00 | 78 | 1015.1 |
| 20260507072509 | 49 | 314 | 1.7 | 4.3 | 0.00 | 0.00 | 0.00 | 80 | 1015.0 |
| 20260507072003 | 49 | 30 | 1.7 | 3.5 | 0.00 | 0.00 | 0.00 | 79 | 1014.9 |
| 20260507071514 | 49 | 23 | 1.7 | 3.5 | 0.00 | 0.00 | 0.00 | 80 | 1014.9 |
| 20260507071008 | 49 | 13 | 1.7 | 5.2 | 0.00 | 0.00 | 0.00 | 80 | 1014.9 |
| 20260507070507 | 49 | 80 | 1.7 | 5.2 | 0.00 | 0.00 | 0.00 | 80 | 1014.9 |
| 20260507070021 | 49 | 59 | 2.6 | 7.8 | 0.00 | 0.00 | 0.00 | 80 | 1014.9 |
| 20260507065511 | 49 | 327 | 4.3 | 7.8 | 0.00 | 0.00 | 0.00 | 80 | 1014.7 |
| 20260507065006 | 49 | 74 | 0.9 | 4.3 | 0.00 | 0.00 | 0.00 | 81 | 1014.7 |
| 20260507064518 | 49 | 60 | 1.7 | 4.3 | 0.00 | 0.00 | 0.00 | 80 | 1014.6 |
| 20260507064010 | 49 | 65 | 1.7 | 4.3 | 0.00 | 0.00 | 0.00 | 81 | 1014.6 |
| 20260507063513 | 49 | 40 | 2.6 | 4.3 | 0.00 | 0.00 | 0.00 | 81 | 1014.6 |
| 20260507063027 | 49 | 54 | 2.6 | 4.3 | 0.00 | 0.00 | 0.00 | 81 | 1014.6 |
| 20260507062508 | 49 | 75 | 0.9 | 2.6 | 0.00 | 0.00 | 0.00 | 82 | 1014.6 |
| 20260507062010 | 49 | 5 | 0.9 | 3.5 | 0.00 | 0.00 | 0.00 | 83 | 1014.5 |
| 20260507061534 | 49 | 28 | 0.9 | 3.5 | 0.00 | 0.00 | 0.00 | 83 | 1014.4 |
| 20260507061010 | 49 | 360 | 0.0 | 3.5 | 0.00 | 0.00 | 0.00 | 83 | 1014.4 |
| 20260507060503 | 48 | 11 | 0.9 | 3.5 | 0.00 | 0.00 | 0.00 | 83 | 1014.3 |
| 20260507060014 | 48 | 42 | 1.7 | 3.5 | 0.00 | 0.00 | 0.00 | 83 | 1014.3 |
| 20260507055508 | 48 | 23 | 1.7 | 3.5 | 0.00 | 0.00 | 0.00 | 84 | 1014.3 |
| 20260507055007 | 48 | 25 | 0.9 | 2.6 | 0.00 | 0.00 | 0.00 | 85 | 1014.2 |
| 20260507054518 | 48 | 9 | 0.9 | 2.6 | 0.00 | 0.00 | 0.00 | 85 | 1014.2 |
| 20260507054010 | 48 | 10 | 0.9 | 2.6 | 0.00 | 0.00 | 0.00 | 85 | 1014.1 |
| 20260507053517 | 48 | 340 | 0.0 | 1.7 | 0.00 | 0.00 | 0.00 | 85 | 1014.0 |
| 20260507053023 | 48 | 352 | 0.0 | 1.7 | 0.00 | 0.00 | 0.00 | 85 | 1014.0 |
| 20260507052511 | 48 | 9 | 0.0 | 1.7 | 0.00 | 0.00 | 0.00 | 85 | 1014.0 |
| 20260507052011 | 48 | 9 | 0.0 | 1.7 | 0.00 | 0.00 | 0.00 | 86 | 1013.9 |
| 20260507051524 | 47 | 350 | 0.0 | 1.7 | 0.00 | 0.00 | 0.00 | 86 | 1013.8 |
| 20260507051006 | 47 | 301 | 0.0 | 1.7 | 0.00 | 0.00 | 0.00 | 87 | 1013.8 |
| 20260507050505 | 47 | 291 | 0.0 | 1.7 | 0.00 | 0.00 | 0.00 | 87 | 1013.8 |
| 20260507050034 | 47 | 302 | 0.0 | 1.7 | 0.00 | 0.00 | 0.00 | 87 | 1013.7 |
| 20260507045508 | 47 | 296 | 0.0 | 1.7 | 0.00 | 0.00 | 0.00 | 87 | 1013.6 |
| 20260507045007 | 47 | 59 | 0.0 | 1.7 | 0.00 | 0.00 | 0.00 | 87 | 1013.5 |
| 20260507044522 | 47 | 59 | 0.0 | 1.7 | 0.00 | 0.00 | 0.00 | 87 | 1013.5 |
| 20260507044007 | 47 | 59 | 0.9 | 1.7 | 0.00 | 0.00 | 0.00 | 87 | 1013.4 |
| 20260507043507 | 47 | 38 | 0.0 | 1.7 | 0.00 | 0.00 | 0.00 | 87 | 1013.3 |
| 20260507043021 | 47 | 38 | 0.0 | 1.7 | 0.00 | 0.00 | 0.00 | 87 | 1013.2 |
| 20260507042509 | 47 | 38 | 0.0 | 1.7 | 0.00 | 0.00 | 0.00 | 87 | 1013.2 |
| 20260507042014 | 47 | 70 | 0.0 | 1.7 | 0.00 | 0.00 | 0.00 | 87 | 1013.1 |
| 20260507041504 | 47 | 71 | 0.0 | 1.7 | 0.00 | 0.01 | 0.00 | 87 | 1013.1 |
| 20260507041003 | 47 | 70 | 0.0 | 1.7 | 0.00 | 0.01 | 0.00 | 87 | 1013.1 |
| 20260507040506 | 47 | 63 | 0.0 | 1.7 | 0.00 | 0.01 | 0.00 | 87 | 1013.1 |
| 20260507040013 | 47 | 63 | 0.0 | 1.7 | 0.00 | 0.01 | 0.00 | 87 | 1013.1 |
| 20260507035505 | 47 | 63 | 0.0 | 1.7 | 0.00 | 0.01 | 0.00 | 87 | 1013.1 |
| 20260507035007 | 47 | 44 | 0.0 | 1.7 | 0.00 | 0.01 | 0.00 | 87 | 1013.0 |
| 20260507034516 | 47 | 30 | 0.0 | 1.7 | 0.00 | 0.01 | 0.00 | 87 | 1012.9 |
| 20260507034013 | 47 | 301 | 0.0 | 1.7 | 0.00 | 0.01 | 0.00 | 88 | 1013.0 |
| 20260507033507 | 47 | 313 | 0.0 | 1.7 | 0.00 | 0.01 | 0.00 | 88 | 1012.9 |
| 20260507033029 | 47 | 313 | 0.0 | 1.7 | 0.00 | 0.01 | 0.00 | 88 | 1013.0 |
| 20260507032511 | 47 | 227 | 0.0 | 1.7 | 0.00 | 0.01 | 0.00 | 88 | 1012.9 |
| 20260507032011 | 47 | 227 | 0.0 | 1.7 | 0.00 | 0.01 | 0.00 | 88 | 1013.0 |
| 20260507031528 | 47 | 228 | 0.0 | 1.7 | 0.00 | 0.01 | 0.00 | 88 | 1012.9 |
| 20260507031011 | 47 | 228 | 0.0 | 1.7 | 0.00 | 0.01 | 0.00 | 88 | 1012.8 |
| 20260507030512 | 47 | 213 | 0.0 | 1.7 | 0.00 | 0.01 | 0.00 | 88 | 1012.8 |
| 20260507030006 | 47 | 202 | 0.0 | 1.7 | 0.00 | 0.01 | 0.00 | 88 | 1012.8 |
| 20260507025503 | 47 | 219 | 0.0 | 0.9 | 0.00 | 0.01 | 0.00 | 87 | 1012.8 |
| 20260507025012 | 47 | 209 | 0.0 | 1.7 | 0.00 | 0.01 | 0.00 | 87 | 1012.8 |
| 20260507024516 | 47 | 191 | 0.0 | 1.7 | 0.00 | 0.01 | 0.00 | 87 | 1012.8 |
| 20260507024009 | 47 | 219 | 0.0 | 1.7 | 0.00 | 0.01 | 0.00 | 87 | 1012.8 |
| 20260507023509 | 47 | 195 | 0.0 | 2.6 | 0.00 | 0.01 | 0.00 | 87 | 1012.8 |
| 20260507023016 | 47 | 195 | 0.0 | 2.6 | 0.00 | 0.01 | 0.00 | 87 | 1012.7 |
| 20260507022509 | 47 | 209 | 0.0 | 5.2 | 0.00 | 0.01 | 0.00 | 87 | 1012.7 |
| 20260507022009 | 47 | 221 | 2.6 | 5.2 | 0.00 | 0.01 | 0.00 | 86 | 1012.6 |
| 20260507021536 | 47 | 268 | 0.9 | 2.6 | 0.00 | 0.01 | 0.00 | 87 | 1012.6 |
| 20260507021011 | 47 | 246 | 0.0 | 1.7 | 0.00 | 0.01 | 0.00 | 87 | 1012.5 |
| 20260507020511 | 47 | 225 | 0.0 | 1.7 | 0.00 | 0.01 | 0.00 | 87 | 1012.5 |
| 20260507020026 | 47 | 195 | 0.0 | 1.7 | 0.00 | 0.01 | 0.00 | 87 | 1012.4 |
| 20260507015509 | 47 | 327 | 0.0 | 1.7 | 0.00 | 0.01 | 0.00 | 87 | 1012.5 |
| 20260507015011 | 47 | 192 | 0.0 | 1.7 | 0.00 | 0.01 | 0.00 | 87 | 1012.4 |
| 20260507014508 | 47 | 250 | 0.0 | 3.5 | 0.00 | 0.01 | 0.00 | 87 | 1012.4 |
| 20260507014005 | 47 | 250 | 0.9 | 3.5 | 0.00 | 0.01 | 0.00 | 87 | 1012.4 |
| 20260507013507 | 47 | 243 | 1.7 | 5.2 | 0.00 | 0.01 | 0.00 | 86 | 1012.4 |
| 20260507013015 | 47 | 265 | 2.6 | 5.2 | 0.00 | 0.01 | 0.00 | 86 | 1012.4 |
| 20260507012506 | 47 | 277 | 0.9 | 2.6 | 0.00 | 0.01 | 0.00 | 86 | 1012.3 |
| 20260507012009 | 47 | 211 | 0.0 | 3.5 | 0.00 | 0.01 | 0.00 | 86 | 1012.3 |
| 20260507011528 | 47 | 323 | 1.7 | 3.5 | 0.00 | 0.01 | 0.00 | 86 | 1012.3 |
| 20260507011007 | 47 | 268 | 0.9 | 3.5 | 0.00 | 0.01 | 0.00 | 86 | 1012.4 |
| 20260507010512 | 47 | 251 | 0.9 | 3.5 | 0.00 | 0.01 | 0.00 | 86 | 1012.3 |
| 20260507010037 | 47 | 240 | 1.7 | 3.5 | 0.00 | 0.01 | 0.00 | 86 | 1012.3 |
| 20260507005507 | 47 | 234 | 0.9 | 1.7 | 0.00 | 0.01 | 0.00 | 85 | 1012.2 |
| 20260507005017 | 47 | 280 | 0.0 | 2.6 | 0.00 | 0.01 | 0.00 | 85 | 1012.2 |
| 20260507004526 | 47 | 327 | 0.0 | 2.6 | 0.00 | 0.01 | 0.00 | 84 | 1012.2 |
| 20260507004011 | 47 | 310 | 0.9 | 2.6 | 0.00 | 0.01 | 0.00 | 84 | 1012.2 |
| 20260507003508 | 47 | 291 | 0.0 | 1.7 | 0.00 | 0.01 | 0.00 | 84 | 1012.2 |
| 20260507003012 | 47 | 260 | 0.0 | 1.7 | 0.00 | 0.01 | 0.00 | 83 | 1012.2 |
| 20260507002507 | 47 | 281 | 0.0 | 2.6 | 0.00 | 0.01 | 0.00 | 83 | 1012.1 |
| 20260507002006 | 47 | 340 | 0.9 | 2.6 | 0.00 | 0.01 | 0.00 | 83 | 1012.1 |
| 20260507001519 | 47 | 348 | 0.0 | 1.7 | 0.00 | 0.01 | 0.00 | 83 | 1012.1 |
| 20260507001008 | 47 | 312 | 0.0 | 1.7 | 0.00 | 0.02 | 0.00 | 82 | 1012.0 |
| 20260507000512 | 47 | 317 | 0.0 | 2.6 | 0.00 | 0.02 | 0.00 | 82 | 1012.0 |
| 20260507000023 | 47 | 265 | 0.9 | 2.6 | 0.00 | 0.02 | 0.00 | 82 | 1012.0 |
| 20260506235507 | 47 | 249 | 0.9 | 2.6 | 0.00 | 0.02 | 0.00 | 82 | 1012.0 |
| 20260506235011 | 48 | 234 | 0.0 | 5.2 | 0.00 | 0.02 | 0.00 | 82 | 1012.0 |
| 20260506234526 | 47 | 232 | 1.7 | 5.2 | 0.00 | 0.02 | 0.00 | 82 | 1012.0 |
| 20260506234012 | 47 | 279 | 0.0 | 2.6 | 0.00 | 0.02 | 0.00 | 82 | 1012.0 |
| 20260506233512 | 47 | 264 | 0.0 | 2.6 | 0.00 | 0.02 | 0.00 | 82 | 1012.0 |
| 20260506233028 | 48 | 271 | 0.0 | 4.3 | 0.00 | 0.02 | 0.00 | 82 | 1011.9 |
| 20260506232507 | 47 | 286 | 0.9 | 4.3 | 0.00 | 0.02 | 0.00 | 82 | 1012.0 |
| 20260506232008 | 47 | 253 | 0.9 | 1.7 | 0.00 | 0.02 | 0.00 | 82 | 1011.9 |
| 20260506231522 | 48 | 259 | 0.0 | 2.6 | 0.00 | 0.02 | 0.00 | 82 | 1012.0 |
| 20260506231007 | 48 | 252 | 0.0 | 2.6 | 0.00 | 0.02 | 0.00 | 82 | 1012.0 |
| 20260506230506 | 48 | 260 | 0.9 | 2.6 | 0.00 | 0.02 | 0.00 | 82 | 1012.0 |
| 20260506230022 | 48 | 248 | 0.9 | 2.6 | 0.00 | 0.02 | 0.00 | 82 | 1011.9 |
| 20260506225511 | 48 | 265 | 1.7 | 2.6 | 0.00 | 0.02 | 0.00 | 82 | 1012.0 |
| 20260506225008 | 48 | 273 | 0.9 | 3.5 | 0.00 | 0.02 | 0.00 | 82 | 1011.9 |
| 20260506224523 | 48 | 319 | 0.9 | 3.5 | 0.00 | 0.02 | 0.00 | 81 | 1011.9 |
| 20260506224007 | 48 | 265 | 0.9 | 2.6 | 0.00 | 0.02 | 0.00 | 82 | 1011.9 |
| 20260506223515 | 48 | 310 | 0.9 | 2.6 | 0.00 | 0.02 | 0.00 | 82 | 1011.9 |
| 20260506223026 | 48 | 53 | 0.9 | 2.6 | 0.00 | 0.02 | 0.00 | 82 | 1011.9 |
| 20260506222512 | 48 | 348 | 0.0 | 1.7 | 0.00 | 0.02 | 0.00 | 83 | 1011.9 |
| 20260506222015 | 48 | 31 | 0.9 | 2.6 | 0.00 | 0.02 | 0.00 | 82 | 1011.9 |
| 20260506221526 | 48 | 10 | 0.9 | 2.6 | 0.00 | 0.02 | 0.00 | 82 | 1011.8 |
| 20260506221011 | 48 | 344 | 0.0 | 1.7 | 0.00 | 0.02 | 0.00 | 82 | 1011.7 |
| 20260506220504 | 48 | 349 | 0.0 | 1.7 | 0.00 | 0.02 | 0.00 | 82 | 1011.7 |
| 20260506220027 | 48 | 319 | 0.0 | 1.7 | 0.00 | 0.02 | 0.00 | 82 | 1011.6 |
| 20260506215506 | 48 | 352 | 0.0 | 1.7 | 0.00 | 0.02 | 0.02 | 82 | 1011.5 |
| 20260506215013 | 48 | 34 | 0.0 | 1.7 | 0.00 | 0.02 | 0.02 | 82 | 1011.5 |
| 20260506214522 | 48 | 287 | 0.0 | 1.7 | 0.00 | 0.02 | 0.02 | 83 | 1011.4 |
| 20260506214008 | 48 | 311 | 0.0 | 1.7 | 0.00 | 0.02 | 0.02 | 82 | 1011.4 |
| 20260506213510 | 48 | 5 | 0.0 | 1.7 | 0.00 | 0.02 | 0.02 | 82 | 1011.3 |
| 20260506213030 | 48 | 5 | 0.0 | 1.7 | 0.00 | 0.02 | 0.02 | 82 | 1011.2 |
| 20260506212508 | 49 | 5 | 0.0 | 1.7 | 0.00 | 0.02 | 0.02 | 81 | 1011.1 |
| 20260506212018 | 49 | 15 | 0.0 | 1.7 | 0.00 | 0.02 | 0.02 | 81 | 1011.1 |
| 20260506211529 | 49 | 25 | 0.9 | 1.7 | 0.00 | 0.02 | 0.02 | 82 | 1011.1 |
| 20260506211010 | 49 | 55 | 0.0 | 1.7 | 0.00 | 0.03 | 0.02 | 82 | 1011.1 |
| 20260506210511 | 49 | 19 | 0.0 | 1.7 | 0.00 | 0.03 | 0.02 | 81 | 1011.1 |
| 20260506210034 | 49 | 19 | 0.0 | 1.7 | 0.00 | 0.03 | 0.02 | 81 | 1011.2 |
| 20260506205508 | 49 | 19 | 0.0 | 1.7 | 0.00 | 0.04 | 0.02 | 81 | 1010.9 |
| 20260506205008 | 49 | 9 | 0.0 | 1.7 | 0.00 | 0.06 | 0.02 | 81 | 1011.0 |
| 20260506204519 | 49 | 11 | 0.0 | 2.6 | 0.00 | 0.07 | 0.02 | 80 | 1010.9 |
| 20260506204010 | 49 | 360 | 0.9 | 2.6 | 0.00 | 0.10 | 0.02 | 79 | 1010.9 |
| 20260506203511 | 49 | 82 | 0.9 | 1.7 | 0.00 | 0.11 | 0.02 | 79 | 1010.9 |
| 20260506203028 | 49 | 13 | 0.9 | 1.7 | 0.00 | 0.12 | 0.02 | 79 | 1010.9 |
| 20260506202510 | 49 | 74 | 0.0 | 3.5 | 0.00 | 0.14 | 0.02 | 79 | 1010.8 |
| 20260506202012 | 50 | 13 | 1.7 | 3.5 | 0.00 | 0.16 | 0.02 | 78 | 1010.8 |